www.pogodaiklimat.ru

Погода и климат >> Архив погоды >> Россия >> Владимирская область >> Петушки


ПОГОДА в Петушках

  • Прогноз погоды в Петушках
  • Монитор погоды в Петушках

АРХИВ ПОГОДЫ в Петушках

Время (UTC), дата Ветер
(напр.,м/с)
 
Видим.   Явления Облачность Т
(С)
Тd
(С)
f
(%)
Тe
(С)
Тes
(С)
Комфортность P
(гПа)
Po
(гПа)
Тmin
(С)
Tmax
(С)
R
(мм)
R24
(мм)
S
(см)
15 13.07 Ю 1 20 км {ливн. осадки} 10/10 300 м
[Cb cap]
+14.5 +10.7 78 +15 +15 1009.6 992.2 +18.8 3
18 13.07 штиль 0 20 км {ливн. осадки} 9/4 600 м
[Cb cap Ac trans]
+14.5 +10.7 78 +14 +14 1009.6 992.9
21 13.07 штиль 0 н/о дымка ясно +10.2 +9.4 95 +9 +9 1010.9 993.2
00 14.07 З 1 н/о дымка 9/9 600 м
[Cb cap]
+9.6 +8.8 95 +9 +9 1011.2 993.5
03 14.07 СЗ 1 4000 м дымка 9/6 600 м
[Cb cap Ac As]
+11.3 +10.4 94 +11 +11 1011.3 993.7 +8.8
06 14.07 В 1 20 км 10/4 600 м
[Cb cap Ac As]
+17.1 +9.3 60 +18 +20 1011.0 993.8
09 14.07 С 1 20 км 10/10 600 м
[Cb cap]
+17.6 +8.4 55 +19 +19 1011.3 994.1
12 14.07 С 2 20 км 9/8 600 м
[Cb cap Ac trans]
+16.5 +8.0 57 +17 +18 1011.1 993.8
15 14.07 С 1 20 км 4/3 600 м
[Sc diur, vesp Ac trans Ci fib]
+20.3 +7.0 42 +22 +24 комфорт 1010.8 993.7 +20.6
18 14.07 С 1 20 км 3/0
[Ci fib]
+15.1 +10.0 72 +16 +16 1011.5 994.1
21 14.07 СВ 1 н/о 1/0
[Ac trans]
+11.1 +9.5 90 +11 +11 1011.6 994.0
00 15.07 СВ 1 н/о дымка ясно +9.2 +8.3 94 +8 +8 1011.7 993.9
03 15.07 СВ 1 10 км 4/3 600 м
[Cu hum Ci fib]
+11.4 +9.2 86 +11 +12 1011.9 994.3 +8.8
06 15.07 Ю 1 20 км 10/0
[Ci]
+18.3 +9.2 55 +20 +28 1011.3 994.1
09 15.07 Ю 1 20 км 9/5 600 м
[Cb cap As op Ci fib]
+20.4 +7.6 44 +23 +28 комфорт 1010.8 993.7
12 15.07 З 2 20 км 10/10 600 м
[Cb cap]
+20.1 +8.5 47 +22 +22 комфорт 1010.8 993.7
15 15.07 ЮЗ 1 20 км 10/4 600 м
[Cb cap As trans]
+19.1 +11.1 60 +21 +22 комфорт 1010.9 993.8 +21.3
18 15.07 штиль 0 20 км 8/6 600 м
[Sc Ci sp]
+15.3 +11.5 78 +15 +15 1011.4 994.0
21 15.07 З 1 н/о дымка 6/0
[Ac trans]
+13.3 +12.1 92 +13 +13 1011.6 994.1
00 16.07 штиль 0 н/о дымка 8/8 300 м
[Sc]
+11.0 +10.1 94 +10 +10 1011.8 994.2
03 16.07 штиль 0 4000 м дымка 10/10 600 м
[Sc]
+12.2 +11.3 94 +12 +12 1012.1 994.5 +10.4
06 16.07 СВ 1 10 км в посл. час ливневой дождь 10/10 300 м
[Cb cap]
+14.6 +11.8 83 +15 +15 1012.2 994.8
09 16.07 ЮВ 2 20 км 10/8 600 м
[Cb cap Ac trans Ci fib]
+21.2 +11.7 55 +23 +25 комфорт 1011.4 994.4
12 16.07 В 2 20 км 10/3 600 м
[Cb cap Ac trans Ci fib]
+22.3 +12.7 55 +25 +29 комфорт 1010.6 993.7
15 16.07 В 1 20 км 10/4 300 м
[Cb cap Ci]
+22.8 +11.8 50 +25 +27 комфорт 1009.4 992.5 +24.2 0.0
18 16.07 СЗ 2 10 км в посл. час гроза {ливн. осадки} 10/8 300 м
[Cb cap Ci]
+16.5 +14.3 87 +17 +17 1009.9 992.7
21 16.07 С 2 н/о 8/3 300 м
[Cb cap Ci fib]
+14.5 +12.7 89 +14 +14 1010.2 992.8
00 17.07 СВ 3 н/о 8/4 600 м
[Cb cap Ci]
+14.2 +12.2 88 +13 +13 1009.5 992.1
03 17.07 СВ 1 10 км 10/9 300 м
[Cb cap Ci sp]
+14.8 +12.7 87 +15 +15 1009.3 992.0 +14.2 5
06 17.07 В 1 20 км 10/9 300 м
[Cb cap Ci sp]
+19.2 +14.1 72 +22 +22 комфорт 1008.2 991.1
09 17.07 ЮВ 2 20 км 10/10 300 м
[Cb cap]
+20.6 +14.3 67 +24 +24 комфорт 1008.1 991.1
12 17.07 В 2
{11}
10 км в посл. час ливневой дождь 10/8 300 м
[Cb cap Ci fib]
+18.4 +14.9 80 +19 +21 1007.5 990.4
15 17.07 СВ 2
{11}
4000 м слаб. ливневой дождь 10/10 300 м
[Cb cap]
+15.7 +14.3 91 +16 +16 1006.8 989.5 +22.7 0.6
18 17.07 СВ 1 4000 м слаб. ливневой дождь 10/10 300 м
[Cb cap]
+15.9 +14.9 94 +17 +17 1006.1 988.9
21 17.07 В 1 н/о слаб. ливневой дождь 10/10 300 м
[Cb cap]
+16.0 +15.2 95 +17 +17 1004.8 987.6
00 18.07 ЮВ 1 н/о дымка {ливн. осадки} 10/10 300 м
[Cb cap]
+16.0 +15.2 95 +17 +17 1003.7 986.5
03 18.07 ЮЗ 1 4000 м слаб. ливневой дождь 10/10 300 м
[Cb cap]
+16.1 +15.3 95 +17 +17 1003.8 986.6 +15.4 2
06 18.07 ЮЗ 1 20 км {ливн. осадки} 10/8 300 м
[Cb cap Ac trans]
+17.8 +15.0 84 +19 +20 1004.5 987.4
09 18.07 Ю 1 20 км 9/9 300 м
[Cb cap]
+21.4 +14.6 65 +24 +26 комфорт 1004.8 987.9
12 18.07 ЮВ 2 20 км 8/8 300 м
[Cb cap]
+23.2 +11.4 47 +25 +28 комфорт 1004.7 987.9
15 18.07 Ю 1
{12}
20 км {ливн. осадки} 9/6 300 м
[Cb cap Ac trans]
+18.6 +13.7 73 +20 +21 1005.7 988.7 +24.2 2
18 18.07 В 1 20 км 9/8 300 м
[Cb cap Ac trans]
+16.5 +14.9 90 +17 +17 1005.7 988.5
21 18.07 Ю 1 н/о ясно +13.7 +11.4 86 +14 +14 1006.6 989.2
00 19.07 Ю 1 н/о дымка ясно +11.6 +10.3 92 +11 +11 1006.8 989.3
03 19.07 ЮВ 2 20 км 10/10 300 м
[]
+12.4 +11.0 91 +11 +11 1006.0 988.6 +11.2
06 19.07 ЮВ 1 4000 м слаб. ливневой дождь 10/10 300 м
[Cb cap]
+13.4 +12.4 94 +13 +13 1005.8 988.4
09 19.07 Ю 2 4000 м в посл. час ливневой дождь 10/10 300 м
[Cb cap]
+15.2 +13.9 92 +15 +15 1005.6 988.3
12 19.07 ЮЗ 1 10 км в посл. час ливневой дождь 10/9 300 м
[Cb cap Ci fib]
+17.8 +14.7 82 +19 +20 1005.8 988.7
15 19.07 ЮЗ 1 20 км {ливн. осадки} 8/3 300 м
[Cb cap Ci]
+19.9 +12.9 64 +23 +25 комфорт 1006.4 989.5 +20.8 7
18 19.07 ЮВ 1 20 км {ливн. осадки} 8/8 300 м
[Cb cap]
+15.5 +13.8 90 +16 +16 1007.3 990.0
21 19.07 штиль 0 н/о дымка 8/3 300 м
[Cb cap Ci ing]
+13.8 +12.8 94 +13 +13 1007.4 990.0
00 20.07 З 1 н/о дымка 10/0
[Cs]
+13.4 +12.6 95 +13 +13 1008.0 990.6
03 20.07 ЮЗ 1 4000 м дымка 10/10 300 м
[St]
+13.9 +13.2 96 +14 +14 1008.8 991.4 +12.7
06 20.07 З 2 10 км {ливн. осадки} 10/10 300 м
[Cb cap]
+16.4 +13.5 83 +17 +17 1009.4 992.2
09 20.07 З 3 20 км 8/3 300 м
[Cb cap Ci]
+19.5 +13.4 68 +21 +29 комфорт 1009.9 992.8
12 20.07 З 3 20 км {ливн. осадки} 8/8 300 м
[Cb cap]
+22.4 +12.2 52 +25 +27 комфорт 1010.4 993.4

 

Местоположение метеостанции Петушки (Владимирская область, Россия): широта 55.93 долгота 39.46 высота над уровнем моря 148 м.

В архиве по умолчанию представлена погода в Петушках за последнюю неделю. Архивные данные за месяц целиком и за предыдущие месяцы, начиная с января 2011 года, Вы можете получить, выбрав интересующий диапазон дат из раскрывающегося списка и нажав кнопку "Ввод!".


*Определитесь, кто Вы:
робот инопланетянин человек

Внимание! Время в таблицах - всемирное. Для получения местного времени необходимо прибавить поправку, которая равна 3 ч.

Смотрите также архив погоды в соседних городах и на ближайших метеорологических станциях:

Погода в Павловском Посаде (Московская область, Россия) (52 км)
Погода в Черустях (Московская область, Россия) (55 км)
Погода в Владимире (Владимирская область, Россия) (59 км)
Погода в Электростали (Московская область, Россия) (62 км)
Погода в Юрьев-Польском (Владимирская область, Россия) (63 км)
Погода в Егорьевске (Московская область, Россия) (67 км)
Погода в Александрове (Владимирская область, Россия) (68 км)
Погода в Электроуглях (Московская область, Россия) (76 км)
Погода в Суздале (Владимирская область, Россия) (82 км)
Погода в Гусь-Хрустальный (Владимирская область, Россия) (83 км)

Пояснения к столбцам:

Ветер - указаны скорость ветра в м/с - средняя за 10 мин, порывы в срок и между сроками (в фигурных скобках) и направление, откуда дует ветер: С - северный, СВ - северо-восточный, В - восточный, ЮВ - юго-восточный, Ю - южный, ЮЗ - юго-западный, З - западный, СЗ - северо-западный.
Видимость - горизонтальная дальность видимости в метрах или километрах. При видимости от 1 до 10 км при отсутствии осадков обычно наблюдается дымка, при ухудшении видимости до 1 км и менее - туман. В сухую погоду видимость может ухудшаться дымом, пылью или мглою.
Явления - указаны атмосферные явления, наблюдавшиеся в срок или в последний час перед сроком; фигурными скобками обозначены явления, наблюдавшиеся между сроками (за 1-3 часа до срока); квадратными скобками обозначены град или гололедные отложения с указанием их диаметра в мм.
Облачность - указаны через наклонную черту общая и нижняя облачность в баллах и высота нижней границы облаков в метрах; квадратными скобками обозначены формы облаков: Ci - перистые, Cs - перисто-слоистые, Cc - перисто-кучевые, Ac - высококучевые, As - высокослоистые, Sc - слоисто-кучевые, Ns - слоисто-дождевые, Cu - кучевые, Cb - кучево-дождевые. Подробнее классификацию облаков см. в Атласе облаков (PDF).
T - Температура воздуха - температура, измеренная на высоте 2 м над землей.
Td - Температура точки росы - температура, при понижении до которой содержащийся в воздухе водяной пар достигнет насыщения.
f - Относительная влажность воздуха - влажноcть воздуха, измеренная на высоте 2 м над землей.
Te - Эффективная температура - температура, которую ощущает одетый по сезону человек в тени. Характеристика душности погоды. При расчете учитывается влияние влажности воздуха и скорости ветра на теплоощущения человека.
Tes - Эффективная температура на солнце - температура, которую ощущает человек, с поправкой на солнечный нагрев. Характеристика знойности погоды. Зависит от высоты солнца над горизонтом, облачности и скорости ветра. Ночью, в пасмурную погоду, а также при ветре 12 м/с и более поправка равна нулю.
P - Атмосферное давление - приведенное к уровню моря атмосферное давление.
Po - Атмосферное давление - измеренное на уровне метеостанции атмосферное давление.
Tmin - Минимальная температура - минимум температуры воздуха на высоте 2 м над землей.
Tmax - Максимальная температура - максимум температуры воздуха на высоте 2 м над землей.
R - Количество осадков - Количество выпавших осадков за период времени, мм. При наведении курсора мыши на число - период времени, за который выпало указанное количество осадков.
R24 - Количество осадков - Количество выпавших осадков за 24 часа, мм.
S - Снежный покров - Высота снежного покрова, см. При наведении курсора мыши на число - состояние снежного покрова и степень покрытия местности в баллах.